Time,TemperatureF,DewpointF,PressureIn,WindDirection,WindDirectionDegrees,WindSpeedMPH,WindSpeedGustMPH,Humidity,HourlyPrecipIn,Conditions,Clouds,dailyrainin,SoftwareType,DateUTC
2013-04-08 00:00:00,59.0,43.7,30.09,SE,135,0.4,0.7,57,0.00,,,0.00,WUHU216HW,2013-04-08 04:00:00,
2013-04-08 00:05:00,58.9,43.7,30.09,SE,135,0.0,0.7,57,0.00,,,0.00,WUHU216HW,2013-04-08 04:05:00,
2013-04-08 00:10:00,58.7,43.5,30.09,SE,135,0.0,0.7,57,0.00,,,0.00,WUHU216HW,2013-04-08 04:10:00,
2013-04-08 00:15:00,58.7,43.9,30.09,SSE,158,0.2,0.4,58,0.00,,,0.00,WUHU216HW,2013-04-08 04:15:00,
2013-04-08 00:20:00,58.7,43.9,30.09,SSE,158,0.0,0.4,58,0.00,,,0.00,WUHU216HW,2013-04-08 04:20:00,
2013-04-08 00:25:00,58.5,43.7,30.09,SE,135,0.0,0.4,58,0.00,,,0.00,WUHU216HW,2013-04-08 04:25:00,
2013-04-08 00:30:00,58.3,43.6,30.09,SE,135,0.0,0.4,58,0.00,,,0.00,WUHU216HW,2013-04-08 04:30:00,
2013-04-08 00:35:00,58.3,43.6,30.09,SSE,158,0.0,0.4,58,0.00,,,0.00,WUHU216HW,2013-04-08 04:35:00,
2013-04-08 00:40:00,58.3,43.6,30.09,SSE,158,0.0,0.4,58,0.00,,,0.00,WUHU216HW,2013-04-08 04:40:00,
2013-04-08 00:45:00,58.1,43.9,30.09,ESE,113,0.4,0.4,59,0.00,,,0.00,WUHU216HW,2013-04-08 04:45:00,
2013-04-08 00:50:00,58.0,44.2,30.09,ESE,113,0.4,0.7,60,0.00,,,0.00,WUHU216HW,2013-04-08 04:50:00,
2013-04-08 00:55:00,57.8,44.5,30.09,ESE,113,0.4,0.9,61,0.00,,,0.00,WUHU216HW,2013-04-08 04:55:00,
2013-04-08 01:00:00,57.6,44.3,30.09,ESE,113,0.4,1.1,61,0.00,,,0.00,WUHU216HW,2013-04-08 05:00:00,
2013-04-08 01:05:00,57.2,44.4,30.09,ESE,113,0.4,1.1,62,0.00,,,0.00,WUHU216HW,2013-04-08 05:05:00,
2013-04-08 01:10:00,57.1,44.6,30.09,ENE,68,0.7,0.7,63,0.00,,,0.00,WUHU216HW,2013-04-08 05:10:00,
2013-04-08 01:15:00,56.9,44.8,30.09,ENE,68,0.0,0.7,64,0.00,,,0.00,WUHU216HW,2013-04-08 05:15:00,
2013-04-08 01:20:00,56.9,44.8,30.09,ENE,68,0.4,0.7,64,0.00,,,0.00,WUHU216HW,2013-04-08 05:20:00,
2013-04-08 01:25:00,56.7,44.7,30.09,ENE,68,0.0,0.4,64,0.00,,,0.00,WUHU216HW,2013-04-08 05:25:00,
2013-04-08 01:30:00,56.5,44.5,30.09,ENE,68,0.0,0.4,64,0.00,,,0.00,WUHU216HW,2013-04-08 05:30:00,
2013-04-08 01:35:00,56.5,44.5,30.09,ENE,68,0.0,0.0,64,0.00,,,0.00,WUHU216HW,2013-04-08 05:35:00,
2013-04-08 01:40:00,56.5,44.5,30.09,ENE,68,0.0,0.0,64,0.00,,,0.00,WUHU216HW,2013-04-08 05:40:00,
2013-04-08 01:45:00,56.5,44.8,30.09,ENE,68,0.0,0.0,65,0.00,,,0.00,WUHU216HW,2013-04-08 05:45:00,
2013-04-08 01:50:00,56.3,44.7,30.09,ENE,68,0.0,0.4,65,0.00,,,0.00,WUHU216HW,2013-04-08 05:50:00,
2013-04-08 01:55:00,56.3,45.1,30.09,ENE,68,0.4,0.4,66,0.00,,,0.00,WUHU216HW,2013-04-08 05:55:00,
2013-04-08 02:00:00,56.2,44.9,30.09,East,90,0.4,0.7,66,0.00,,,0.00,WUHU216HW,2013-04-08 06:00:00,
2013-04-08 02:05:00,56.0,45.2,30.09,ESE,113,0.0,1.3,67,0.00,,,0.00,WUHU216HW,2013-04-08 06:05:00,
2013-04-08 02:10:00,55.8,45.0,30.08,ESE,113,0.0,1.3,67,0.00,,,0.00,WUHU216HW,2013-04-08 06:10:00,
2013-04-08 02:15:00,55.8,45.4,30.08,SE,135,0.0,0.4,68,0.00,,,0.00,WUHU216HW,2013-04-08 06:15:00,
2013-04-08 02:20:00,55.8,45.4,30.08,ESE,113,0.4,0.9,68,0.00,,,0.00,WUHU216HW,2013-04-08 06:20:00,
2013-04-08 02:25:00,55.6,45.6,30.08,East,90,0.7,0.9,69,0.00,,,0.00,WUHU216HW,2013-04-08 06:25:00,
2013-04-08 02:30:00,55.4,45.5,30.08,East,90,0.0,0.7,69,0.00,,,0.00,WUHU216HW,2013-04-08 06:30:00,
2013-04-08 02:35:00,55.4,45.5,30.08,East,90,0.0,0.4,69,0.00,,,0.00,WUHU216HW,2013-04-08 06:35:00,
2013-04-08 02:40:00,55.4,45.5,30.08,East,90,0.0,0.0,69,0.00,,,0.00,WUHU216HW,2013-04-08 06:40:00,
2013-04-08 02:45:00,55.4,45.5,30.08,East,90,0.0,0.0,69,0.00,,,0.00,WUHU216HW,2013-04-08 06:45:00,
2013-04-08 02:50:00,55.4,45.5,30.08,SW,225,0.0,0.4,69,0.00,,,0.00,WUHU216HW,2013-04-08 06:50:00,
2013-04-08 02:55:00,55.4,45.5,30.07,SE,135,0.0,0.4,69,0.00,,,0.00,WUHU216HW,2013-04-08 06:55:00,
2013-04-08 03:00:00,55.4,45.9,30.08,East,90,0.0,0.4,70,0.00,,,0.00,WUHU216HW,2013-04-08 07:00:00,
2013-04-08 03:05:00,55.3,45.7,30.07,East,90,0.0,0.4,70,0.00,,,0.00,WUHU216HW,2013-04-08 07:05:00,
2013-04-08 03:10:00,55.3,45.7,30.07,East,90,0.0,0.0,70,0.00,,,0.00,WUHU216HW,2013-04-08 07:10:00,
2013-04-08 03:15:00,55.3,45.7,30.07,East,90,0.0,0.0,70,0.00,,,0.00,WUHU216HW,2013-04-08 07:15:00,
2013-04-08 03:20:00,55.3,46.1,30.07,East,90,0.0,0.0,71,0.00,,,0.00,WUHU216HW,2013-04-08 07:20:00,
2013-04-08 03:25:00,55.1,45.9,30.07,East,90,0.0,0.0,71,0.00,,,0.00,WUHU216HW,2013-04-08 07:25:00,
2013-04-08 03:30:00,55.1,45.9,30.07,East,90,0.0,0.0,71,0.00,,,0.00,WUHU216HW,2013-04-08 07:30:00,
2013-04-08 03:35:00,55.1,45.9,30.07,East,90,0.0,0.0,71,0.00,,,0.00,WUHU216HW,2013-04-08 07:35:00,
2013-04-08 03:40:00,55.1,45.9,30.07,East,90,0.0,0.0,71,0.00,,,0.00,WUHU216HW,2013-04-08 07:40:00,
2013-04-08 03:46:00,55.1,46.3,30.07,SE,135,0.0,0.2,72,0.00,,,0.00,WUHU216HW,2013-04-08 07:46:00,
2013-04-08 03:51:00,54.9,46.1,30.07,SE,135,0.0,0.2,72,0.00,,,0.00,WUHU216HW,2013-04-08 07:51:00,
2013-04-08 03:56:00,54.9,46.1,30.07,SE,135,0.0,0.0,72,0.00,,,0.00,WUHU216HW,2013-04-08 07:56:00,
2013-04-08 04:01:00,54.9,46.1,30.07,SE,135,0.0,0.0,72,0.00,,,0.00,WUHU216HW,2013-04-08 08:01:00,
2013-04-08 04:06:00,54.7,46.3,30.07,East,90,0.0,0.0,73,0.00,,,0.00,WUHU216HW,2013-04-08 08:06:00,
2013-04-08 04:11:00,54.7,46.3,30.07,SSW,203,0.0,0.4,73,0.00,,,0.00,WUHU216HW,2013-04-08 08:11:00,
2013-04-08 04:16:00,54.7,46.3,30.07,SE,135,0.0,0.4,73,0.00,,,0.00,WUHU216HW,2013-04-08 08:16:00,
2013-04-08 04:21:00,54.7,46.3,30.07,SE,135,0.0,0.7,73,0.00,,,0.00,WUHU216HW,2013-04-08 08:21:00,
2013-04-08 04:26:00,54.7,46.6,30.07,SE,135,0.0,0.7,74,0.00,,,0.00,WUHU216HW,2013-04-08 08:26:00,
2013-04-08 04:32:00,54.5,46.5,30.07,SE,135,0.0,0.2,74,0.00,,,0.00,WUHU216HW,2013-04-08 08:32:00,
2013-04-08 04:36:00,54.5,46.5,30.07,South,180,0.0,0.4,74,0.00,,,0.00,WUHU216HW,2013-04-08 08:36:00,
2013-04-08 04:42:00,54.5,46.8,30.07,WSW,248,0.0,0.4,75,0.00,,,0.00,WUHU216HW,2013-04-08 08:42:00,
2013-04-08 04:47:00,54.5,46.5,30.07,SSE,158,0.0,0.4,74,0.00,,,0.00,WUHU216HW,2013-04-08 08:47:00,
2013-04-08 04:52:00,54.5,46.5,30.07,SE,135,0.2,0.4,74,0.00,,,0.00,WUHU216HW,2013-04-08 08:52:00,
2013-04-08 04:57:00,54.4,46.6,30.08,SE,135,0.0,0.4,75,0.00,,,0.00,WUHU216HW,2013-04-08 08:57:00,
2013-04-08 05:02:00,54.4,46.6,30.07,SE,135,0.0,0.2,75,0.00,,,0.00,WUHU216HW,2013-04-08 09:02:00,
2013-04-08 05:07:00,54.4,46.6,30.07,SSW,203,0.0,0.4,75,0.00,,,0.00,WUHU216HW,2013-04-08 09:07:00,
2013-04-08 05:12:00,54.4,46.6,30.07,SSE,158,0.7,0.7,75,0.00,,,0.00,WUHU216HW,2013-04-08 09:12:00,
2013-04-08 05:17:00,54.4,46.6,30.07,SSW,203,0.7,1.1,75,0.00,,,0.00,WUHU216HW,2013-04-08 09:17:00,
2013-04-08 05:22:00,54.4,46.6,30.08,SE,135,0.4,1.1,75,0.00,,,0.00,WUHU216HW,2013-04-08 09:22:00,
2013-04-08 05:27:00,54.4,46.6,30.08,SSE,158,0.0,0.9,75,0.00,,,0.00,WUHU216HW,2013-04-08 09:27:00,
2013-04-08 05:32:00,54.4,46.6,30.08,South,180,0.0,0.7,75,0.00,,,0.00,WUHU216HW,2013-04-08 09:32:00,
2013-04-08 05:37:00,54.4,46.6,30.08,SSE,158,0.2,0.7,75,0.00,,,0.00,WUHU216HW,2013-04-08 09:37:00,
2013-04-08 05:42:00,54.4,46.6,30.08,SSW,203,0.0,0.7,75,0.00,,,0.00,WUHU216HW,2013-04-08 09:42:00,
2013-04-08 05:47:00,54.4,46.6,30.08,SSE,158,0.0,0.4,75,0.00,,,0.00,WUHU216HW,2013-04-08 09:47:00,
2013-04-08 05:52:00,54.4,46.6,30.08,SSE,158,0.0,0.2,75,0.00,,,0.00,WUHU216HW,2013-04-08 09:52:00,
2013-04-08 05:57:00,54.4,46.6,30.08,SSW,203,0.0,0.4,75,0.00,,,0.00,WUHU216HW,2013-04-08 09:57:00,
2013-04-08 06:02:00,54.4,46.6,30.08,South,180,0.4,0.7,75,0.00,,,0.00,WUHU216HW,2013-04-08 10:02:00,
2013-04-08 06:07:00,54.4,46.6,30.08,SSE,158,0.4,0.7,75,0.00,,,0.00,WUHU216HW,2013-04-08 10:07:00,
2013-04-08 06:12:00,54.4,46.6,30.09,SSE,158,0.0,0.7,75,0.00,,,0.00,WUHU216HW,2013-04-08 10:12:00,
2013-04-08 06:17:00,54.4,46.6,30.09,SSE,158,0.4,0.4,75,0.00,,,0.00,WUHU216HW,2013-04-08 10:17:00,
2013-04-08 06:22:00,54.2,46.5,30.09,SE,135,0.4,0.4,75,0.00,,,0.00,WUHU216HW,2013-04-08 10:22:00,
2013-04-08 06:27:00,54.2,46.5,30.09,SSE,158,0.0,0.4,75,0.00,,,0.00,WUHU216HW,2013-04-08 10:27:00,
2013-04-08 06:32:00,54.2,46.5,30.09,SSE,158,0.0,0.4,75,0.00,,,0.00,WUHU216HW,2013-04-08 10:32:00,
2013-04-08 06:37:00,54.2,46.5,30.09,SSE,158,0.4,0.4,75,0.00,,,0.00,WUHU216HW,2013-04-08 10:37:00,
2013-04-08 06:42:00,54.2,46.8,30.10,SSW,203,0.2,0.9,76,0.00,,,0.00,WUHU216HW,2013-04-08 10:42:00,
2013-04-08 06:47:00,54.2,46.8,30.10,South,180,0.4,0.9,76,0.00,,,0.00,WUHU216HW,2013-04-08 10:47:00,
2013-04-08 06:53:00,54.2,46.8,30.10,SSW,203,0.4,0.4,76,0.00,,,0.00,WUHU216HW,2013-04-08 10:53:00,
2013-04-08 06:58:00,54.0,46.6,30.10,SSW,203,0.2,0.7,76,0.00,,,0.00,WUHU216HW,2013-04-08 10:58:00,
2013-04-08 07:03:00,54.0,46.6,30.10,SSW,203,0.0,0.7,76,0.00,,,0.00,WUHU216HW,2013-04-08 11:03:00,
2013-04-08 07:08:00,54.0,46.6,30.11,South,180,0.0,0.4,76,0.00,,,0.00,WUHU216HW,2013-04-08 11:08:00,
2013-04-08 07:13:00,54.0,47.0,30.11,SSE,158,0.4,0.4,77,0.00,,,0.00,WUHU216HW,2013-04-08 11:13:00,
2013-04-08 07:18:00,54.0,46.6,30.11,SSE,158,0.2,0.4,76,0.00,,,0.00,WUHU216HW,2013-04-08 11:18:00,
2013-04-08 07:23:00,54.2,46.8,30.11,SSE,158,0.4,0.4,76,0.00,,,0.00,WUHU216HW,2013-04-08 11:23:00,
2013-04-08 07:28:00,54.2,47.2,30.11,SSW,203,0.4,0.4,77,0.00,,,0.00,WUHU216HW,2013-04-08 11:28:00,
2013-04-08 07:32:00,54.2,47.5,30.12,SW,225,0.0,0.7,78,0.00,,,0.00,WUHU216HW,2013-04-08 11:32:00,
2013-04-08 07:38:00,54.4,47.6,30.12,SSW,203,0.0,0.7,78,0.00,,,0.00,WUHU216HW,2013-04-08 11:38:00,
2013-04-08 07:43:00,54.4,47.6,30.12,SSW,203,0.4,0.4,78,0.00,,,0.00,WUHU216HW,2013-04-08 11:43:00,
2013-04-08 07:48:00,54.5,47.8,30.13,SSW,203,0.0,0.4,78,0.00,,,0.00,WUHU216HW,2013-04-08 11:48:00,
2013-04-08 07:53:00,54.7,48.0,30.13,SSW,203,0.4,0.4,78,0.00,,,0.00,WUHU216HW,2013-04-08 11:53:00,
2013-04-08 07:58:00,55.1,48.3,30.13,SE,135,0.0,0.7,78,0.00,,,0.00,WUHU216HW,2013-04-08 11:58:00,
2013-04-08 08:03:00,55.3,48.5,30.13,SSE,158,1.1,1.1,78,0.00,,,0.00,WUHU216HW,2013-04-08 12:03:00,
2013-04-08 08:08:00,55.6,49.5,30.13,SW,225,0.4,1.1,80,0.00,,,0.00,WUHU216HW,2013-04-08 12:08:00,
2013-04-08 08:13:00,55.8,49.7,30.13,SW,225,0.2,1.1,80,0.00,,,0.00,WUHU216HW,2013-04-08 12:13:00,
2013-04-08 08:18:00,56.3,50.6,30.13,South,180,0.7,1.8,81,0.00,,,0.00,WUHU216HW,2013-04-08 12:18:00,
2013-04-08 08:23:00,56.7,51.0,30.13,SW,225,1.6,2.5,81,0.00,,,0.00,WUHU216HW,2013-04-08 12:23:00,
2013-04-08 08:28:00,57.2,51.5,30.13,WSW,248,0.7,2.5,81,0.00,,,0.00,WUHU216HW,2013-04-08 12:28:00,
2013-04-08 08:33:00,57.6,51.9,30.13,SSW,203,0.7,1.8,81,0.00,,,0.00,WUHU216HW,2013-04-08 12:33:00,
2013-04-08 08:38:00,58.0,52.2,30.13,WSW,248,2.0,2.0,81,0.00,,,0.00,WUHU216HW,2013-04-08 12:38:00,
2013-04-08 08:43:00,58.3,52.2,30.13,South,180,1.1,2.0,80,0.00,,,0.00,WUHU216HW,2013-04-08 12:43:00,
2013-04-08 08:48:00,58.7,52.2,30.13,SSE,158,1.3,2.0,79,0.00,,,0.00,WUHU216HW,2013-04-08 12:48:00,
2013-04-08 08:53:00,58.9,53.4,30.13,WSW,248,1.1,2.2,82,0.00,,,0.00,WUHU216HW,2013-04-08 12:53:00,
2013-04-08 08:58:00,59.4,53.3,30.13,SSW,203,0.4,2.5,80,0.00,,,0.00,WUHU216HW,2013-04-08 12:58:00,
2013-04-08 09:03:00,59.9,53.5,30.13,SW,225,0.2,2.5,79,0.00,,,0.00,WUHU216HW,2013-04-08 13:03:00,
2013-04-08 09:08:00,60.5,54.0,30.13,SW,225,1.6,1.8,79,0.00,,,0.00,WUHU216HW,2013-04-08 13:08:00,
2013-04-08 09:13:00,61.0,54.2,30.13,WSW,248,1.1,3.4,78,0.00,,,0.00,WUHU216HW,2013-04-08 13:13:00,
2013-04-08 09:18:00,61.6,54.3,30.13,SSW,203,1.1,3.4,77,0.00,,,0.00,WUHU216HW,2013-04-08 13:18:00,
2013-04-08 09:23:00,61.9,54.3,30.12,South,180,0.2,2.2,76,0.00,,,0.00,WUHU216HW,2013-04-08 13:23:00,
2013-04-08 09:29:00,62.3,54.5,30.12,SSW,203,0.4,2.5,76,0.00,,,0.00,WUHU216HW,2013-04-08 13:29:00,
2013-04-08 09:34:00,62.5,54.4,30.12,WSW,248,2.7,3.4,75,0.00,,,0.00,WUHU216HW,2013-04-08 13:34:00,
2013-04-08 09:39:00,63.0,54.9,30.12,SSW,203,0.4,3.4,75,0.00,,,0.00,WUHU216HW,2013-04-08 13:39:00,
2013-04-08 09:44:00,63.2,55.1,30.12,West,270,3.6,3.6,75,0.00,,,0.00,WUHU216HW,2013-04-08 13:44:00,
2013-04-08 09:49:00,63.5,55.1,30.12,NNW,338,0.2,3.6,74,0.00,,,0.00,WUHU216HW,2013-04-08 13:49:00,
2013-04-08 09:54:00,63.9,55.1,30.12,South,180,1.8,3.6,73,0.00,,,0.00,WUHU216HW,2013-04-08 13:54:00,
2013-04-08 09:59:00,64.1,54.9,30.12,WSW,248,3.4,3.6,72,0.00,,,0.00,WUHU216HW,2013-04-08 13:59:00,
2013-04-08 10:04:00,64.4,54.9,30.12,SSW,203,4.7,5.4,71,0.00,,,0.00,WUHU216HW,2013-04-08 14:04:00,
2013-04-08 10:09:00,65.0,55.0,30.12,West,270,0.4,5.6,70,0.00,,,0.00,WUHU216HW,2013-04-08 14:09:00,
2013-04-08 10:14:00,65.2,54.7,30.12,SSW,203,1.1,4.7,69,0.00,,,0.00,WUHU216HW,2013-04-08 14:14:00,
2013-04-08 10:19:00,65.5,54.6,30.12,SW,225,2.5,5.4,68,0.00,,,0.00,WUHU216HW,2013-04-08 14:19:00,
2013-04-08 10:24:00,65.9,55.0,30.12,NW,315,0.4,5.4,68,0.00,,,0.00,WUHU216HW,2013-04-08 14:24:00,
2013-04-08 10:29:00,66.2,54.9,30.12,West,270,1.3,4.7,67,0.00,,,0.00,WUHU216HW,2013-04-08 14:29:00,
2013-04-08 10:34:00,66.6,54.8,30.12,SW,225,3.4,4.7,66,0.00,,,0.00,WUHU216HW,2013-04-08 14:34:00,
2013-04-08 10:40:00,67.0,54.8,30.12,West,270,0.9,4.5,65,0.00,,,0.00,WUHU216HW,2013-04-08 14:40:00,
2013-04-08 10:45:00,67.7,55.0,30.12,WSW,248,2.5,5.4,64,0.00,,,0.00,WUHU216HW,2013-04-08 14:45:00,
2013-04-08 10:50:00,68.0,54.9,30.12,West,270,4.3,5.8,63,0.00,,,0.00,WUHU216HW,2013-04-08 14:50:00,
2013-04-08 10:55:00,68.2,55.1,30.12,SSE,158,0.4,5.8,63,0.00,,,0.00,WUHU216HW,2013-04-08 14:55:00,
2013-04-08 11:00:00,68.8,55.2,30.12,SSW,203,1.8,4.7,62,0.00,,,0.00,WUHU216HW,2013-04-08 15:00:00,
2013-04-08 11:05:00,69.3,55.7,30.12,SSE,158,0.7,5.4,62,0.00,,,0.00,WUHU216HW,2013-04-08 15:05:00,
2013-04-08 11:10:00,69.5,55.5,30.12,West,270,1.8,5.4,61,0.00,,,0.00,WUHU216HW,2013-04-08 15:10:00,
2013-04-08 11:15:00,69.8,55.9,30.11,SW,225,1.8,4.0,61,0.00,,,0.00,WUHU216HW,2013-04-08 15:15:00,
2013-04-08 11:20:00,70.2,55.3,30.12,South,180,1.1,4.3,59,0.00,,,0.00,WUHU216HW,2013-04-08 15:20:00,
2013-04-08 11:25:00,70.2,55.8,30.12,WSW,248,0.9,4.3,60,0.00,,,0.00,WUHU216HW,2013-04-08 15:25:00,
2013-04-08 11:30:00,70.6,56.1,30.11,SW,225,2.7,4.5,60,0.00,,,0.00,WUHU216HW,2013-04-08 15:30:00,
2013-04-08 11:35:00,70.9,56.9,30.12,West,270,4.7,4.7,61,0.00,,,0.00,WUHU216HW,2013-04-08 15:35:00,
2013-04-08 11:40:00,71.3,56.7,30.11,West,270,3.4,5.8,60,0.00,,,0.00,WUHU216HW,2013-04-08 15:40:00,
2013-04-08 11:45:00,71.6,57.1,30.11,WNW,293,2.7,6.9,60,0.00,,,0.00,WUHU216HW,2013-04-08 15:45:00,
2013-04-08 11:50:00,71.8,56.7,30.11,WNW,293,2.2,6.9,59,0.00,,,0.00,WUHU216HW,2013-04-08 15:50:00,
2013-04-08 11:55:00,72.2,57.1,30.11,SW,225,2.5,4.0,59,0.00,,,0.00,WUHU216HW,2013-04-08 15:55:00,
2013-04-08 12:00:00,72.4,57.3,30.11,SE,135,1.3,4.5,59,0.00,,,0.00,WUHU216HW,2013-04-08 16:00:00,
2013-04-08 12:05:00,72.5,56.9,30.11,West,270,2.9,6.3,58,0.00,,,0.00,WUHU216HW,2013-04-08 16:05:00,
2013-04-08 12:10:00,72.5,56.9,30.11,NW,315,2.0,6.3,58,0.00,,,0.00,WUHU216HW,2013-04-08 16:10:00,
2013-04-08 12:15:00,72.5,56.9,30.11,SW,225,1.1,5.1,58,0.00,,,0.00,WUHU216HW,2013-04-08 16:15:00,
2013-04-08 12:20:00,72.7,57.1,30.11,South,180,1.8,5.4,58,0.00,,,0.00,WUHU216HW,2013-04-08 16:20:00,
2013-04-08 12:25:00,73.1,57.3,30.10,SSE,158,3.8,5.4,58,0.00,,,0.00,WUHU216HW,2013-04-08 16:25:00,
2013-04-08 12:30:00,73.3,56.5,30.10,WSW,248,3.4,4.7,56,0.00,,,0.00,WUHU216HW,2013-04-08 16:30:00,
2013-04-08 12:35:00,73.6,56.9,30.10,WSW,248,2.7,5.1,56,0.00,,,0.00,WUHU216HW,2013-04-08 16:35:00,
2013-04-08 12:40:00,73.8,57.1,30.10,West,270,2.5,5.1,56,0.00,,,0.00,WUHU216HW,2013-04-08 16:40:00,
2013-04-08 12:45:00,74.0,56.7,30.09,West,270,2.9,4.7,55,0.00,,,0.00,WUHU216HW,2013-04-08 16:45:00,
2013-04-08 12:51:00,74.0,56.7,30.09,South,180,2.7,4.7,55,0.00,,,0.00,WUHU216HW,2013-04-08 16:51:00,
2013-04-08 12:56:00,74.3,57.1,30.09,SE,135,3.4,5.1,55,0.00,,,0.00,WUHU216HW,2013-04-08 16:56:00,
2013-04-08 13:00:00,74.7,57.4,30.09,SW,225,2.2,5.1,55,0.00,,,0.00,WUHU216HW,2013-04-08 17:00:00,
2013-04-08 13:05:00,74.9,56.1,30.08,NW,315,1.6,5.4,52,0.00,,,0.00,WUHU216HW,2013-04-08 17:05:00,
2013-04-08 13:11:00,75.2,56.4,30.08,South,180,1.8,6.0,52,0.00,,,0.00,WUHU216HW,2013-04-08 17:11:00,
2013-04-08 13:16:00,75.4,56.6,30.08,WSW,248,1.8,6.0,52,0.00,,,0.00,WUHU216HW,2013-04-08 17:16:00,
2013-04-08 13:21:00,75.6,56.8,30.08,WNW,293,1.3,6.0,52,0.00,,,0.00,WUHU216HW,2013-04-08 17:21:00,
2013-04-08 13:26:00,76.0,57.1,30.07,SSE,158,1.8,6.0,52,0.00,,,0.00,WUHU216HW,2013-04-08 17:26:00,
2013-04-08 13:31:00,76.5,57.1,30.07,SW,225,4.0,4.7,51,0.00,,,0.00,WUHU216HW,2013-04-08 17:31:00,
2013-04-08 13:36:00,76.5,56.6,30.07,WNW,293,3.8,5.6,50,0.00,,,0.00,WUHU216HW,2013-04-08 17:36:00,
2013-04-08 13:41:00,76.7,56.2,30.06,NE,45,0.9,5.6,49,0.00,,,0.00,WUHU216HW,2013-04-08 17:41:00,
2013-04-08 13:47:00,76.9,56.3,30.06,WNW,293,0.9,4.3,49,0.00,,,0.00,WUHU216HW,2013-04-08 17:47:00,
2013-04-08 13:52:00,77.0,56.4,30.06,WNW,293,0.2,4.9,49,0.00,,,0.00,WUHU216HW,2013-04-08 17:52:00,
2013-04-08 13:57:00,77.2,56.6,30.06,SE,135,4.9,8.7,49,0.00,,,0.00,WUHU216HW,2013-04-08 17:57:00,
2013-04-08 14:02:00,77.4,54.9,30.06,SSW,203,2.5,8.7,46,0.00,,,0.00,WUHU216HW,2013-04-08 18:02:00,
2013-04-08 14:07:00,77.8,55.9,30.05,East,90,1.3,4.9,47,0.00,,,0.00,WUHU216HW,2013-04-08 18:07:00,
2013-04-08 14:12:00,78.5,55.9,30.05,WNW,293,2.2,4.0,46,0.00,,,0.00,WUHU216HW,2013-04-08 18:12:00,
2013-04-08 14:17:00,78.5,55.9,30.05,ESE,113,4.0,4.7,46,0.00,,,0.00,WUHU216HW,2013-04-08 18:17:00,
2013-04-08 14:22:00,78.8,56.3,30.05,West,270,2.9,7.6,46,0.00,,,0.00,WUHU216HW,2013-04-08 18:22:00,
2013-04-08 14:27:00,79.2,56.0,30.05,West,270,3.4,7.6,45,0.00,,,0.00,WUHU216HW,2013-04-08 18:27:00,
2013-04-08 14:32:00,78.8,55.6,30.05,SSW,203,1.3,3.8,45,0.00,,,0.00,WUHU216HW,2013-04-08 18:32:00,
2013-04-08 14:37:00,79.2,56.5,30.05,SW,225,2.9,4.0,46,0.00,,,0.00,WUHU216HW,2013-04-08 18:37:00,
2013-04-08 14:42:00,79.9,57.3,30.04,SE,135,2.0,4.0,46,0.00,,,0.00,WUHU216HW,2013-04-08 18:42:00,
2013-04-08 14:47:00,80.3,55.7,30.04,SSW,203,0.7,5.1,43,0.00,,,0.00,WUHU216HW,2013-04-08 18:47:00,
2013-04-08 14:52:00,80.1,55.5,30.04,SE,135,1.1,5.1,43,0.00,,,0.00,WUHU216HW,2013-04-08 18:52:00,
2013-04-08 14:57:00,79.9,56.0,30.03,SE,135,2.2,4.5,44,0.00,,,0.00,WUHU216HW,2013-04-08 18:57:00,
2013-04-08 15:02:00,79.7,55.8,30.03,SE,135,1.1,4.5,44,0.00,,,0.00,WUHU216HW,2013-04-08 19:02:00,
2013-04-08 15:07:00,79.9,55.4,30.03,SSW,203,2.9,4.3,43,0.00,,,0.00,WUHU216HW,2013-04-08 19:07:00,
2013-04-08 15:12:00,80.3,55.1,30.03,SSW,203,1.1,5.4,42,0.00,,,0.00,WUHU216HW,2013-04-08 19:12:00,
2013-04-08 15:17:00,80.5,54.6,30.03,SE,135,4.5,6.5,41,0.00,,,0.00,WUHU216HW,2013-04-08 19:17:00,
2013-04-08 15:22:00,79.9,54.7,30.03,SE,135,2.7,6.5,42,0.00,,,0.00,WUHU216HW,2013-04-08 19:22:00,
2013-04-08 15:27:00,79.6,54.5,30.03,SE,135,3.1,6.3,42,0.00,,,0.00,WUHU216HW,2013-04-08 19:27:00,
2013-04-08 15:32:00,79.2,54.7,30.03,SSW,203,1.1,6.3,43,0.00,,,0.00,WUHU216HW,2013-04-08 19:32:00,
2013-04-08 15:37:00,79.2,54.7,30.03,West,270,0.2,4.3,43,0.00,,,0.00,WUHU216HW,2013-04-08 19:37:00,
2013-04-08 15:42:00,79.2,54.7,30.03,West,270,0.4,4.3,43,0.00,,,0.00,WUHU216HW,2013-04-08 19:42:00,
2013-04-08 15:47:00,79.0,54.5,30.03,SSE,158,2.2,3.8,43,0.00,,,0.00,WUHU216HW,2013-04-08 19:47:00,
2013-04-08 15:52:00,79.2,54.7,30.02,SSE,158,1.8,3.8,43,0.00,,,0.00,WUHU216HW,2013-04-08 19:52:00,
2013-04-08 15:57:00,79.0,53.9,30.02,West,270,1.3,5.6,42,0.00,,,0.00,WUHU216HW,2013-04-08 19:57:00,
2013-04-08 16:02:00,78.8,53.8,30.01,SSE,158,1.8,5.6,42,0.00,,,0.00,WUHU216HW,2013-04-08 20:02:00,
2013-04-08 16:07:00,79.2,54.7,30.01,ENE,68,3.4,4.0,43,0.00,,,0.00,WUHU216HW,2013-04-08 20:07:00,
2013-04-08 16:12:00,79.0,53.9,30.01,ESE,113,2.5,5.4,42,0.00,,,0.00,WUHU216HW,2013-04-08 20:12:00,
2013-04-08 16:17:00,78.8,53.8,30.01,South,180,2.2,5.4,42,0.00,,,0.00,WUHU216HW,2013-04-08 20:17:00,
2013-04-08 16:22:00,79.0,53.9,30.01,SSW,203,1.3,3.8,42,0.00,,,0.00,WUHU216HW,2013-04-08 20:22:00,
2013-04-08 16:27:00,79.2,54.7,30.01,SE,135,1.8,3.4,43,0.00,,,0.00,WUHU216HW,2013-04-08 20:27:00,
2013-04-08 16:32:00,79.2,54.1,30.01,SSE,158,4.0,4.9,42,0.00,,,0.00,WUHU216HW,2013-04-08 20:32:00,
2013-04-08 16:37:00,79.4,54.3,30.01,SE,135,0.9,4.9,42,0.00,,,0.00,WUHU216HW,2013-04-08 20:37:00,
2013-04-08 16:42:00,79.2,54.1,30.01,SE,135,2.2,5.4,42,0.00,,,0.00,WUHU216HW,2013-04-08 20:42:00,
2013-04-08 16:47:00,79.2,54.1,30.01,SSE,158,2.5,5.4,42,0.00,,,0.00,WUHU216HW,2013-04-08 20:47:00,
2013-04-08 16:52:00,79.0,53.9,30.00,West,270,1.3,5.1,42,0.00,,,0.00,WUHU216HW,2013-04-08 20:52:00,
2013-04-08 16:57:00,78.8,53.8,30.00,NE,45,2.2,3.4,42,0.00,,,0.00,WUHU216HW,2013-04-08 20:57:00,
2013-04-08 17:02:00,78.8,53.8,30.00,SE,135,4.3,4.3,42,0.00,,,0.00,WUHU216HW,2013-04-08 21:02:00,
2013-04-08 17:07:00,78.7,53.0,30.00,South,180,1.1,4.3,41,0.00,,,0.00,WUHU216HW,2013-04-08 21:07:00,
2013-04-08 17:12:00,78.5,53.5,30.00,SE,135,0.7,4.3,42,0.00,,,0.00,WUHU216HW,2013-04-08 21:12:00,
2013-04-08 17:17:00,78.5,53.5,30.00,SE,135,2.7,3.4,42,0.00,,,0.00,WUHU216HW,2013-04-08 21:17:00,
2013-04-08 17:22:00,78.5,53.5,30.00,NW,315,1.6,3.4,42,0.00,,,0.00,WUHU216HW,2013-04-08 21:22:00,
2013-04-08 17:27:00,78.5,53.5,30.00,ESE,113,0.9,4.0,42,0.00,,,0.00,WUHU216HW,2013-04-08 21:27:00,
2013-04-08 17:32:00,78.3,53.3,30.00,SE,135,1.1,4.3,42,0.00,,,0.00,WUHU216HW,2013-04-08 21:32:00,
2013-04-08 17:37:00,78.3,53.3,30.00,SE,135,1.1,4.3,42,0.00,,,0.00,WUHU216HW,2013-04-08 21:37:00,
2013-04-08 17:42:00,78.1,53.1,30.00,SE,135,1.1,3.6,42,0.00,,,0.00,WUHU216HW,2013-04-08 21:42:00,
2013-04-08 17:47:00,78.1,52.6,30.01,SSW,203,1.8,3.4,41,0.00,,,0.00,WUHU216HW,2013-04-08 21:47:00,
2013-04-08 17:52:00,77.9,53.0,30.01,WSW,248,1.1,4.0,42,0.00,,,0.00,WUHU216HW,2013-04-08 21:52:00,
2013-04-08 17:57:00,77.8,52.8,30.01,SSW,203,3.8,5.4,42,0.00,,,0.00,WUHU216HW,2013-04-08 21:57:00,
2013-04-08 18:02:00,77.8,52.8,30.01,SW,225,0.7,5.4,42,0.00,,,0.00,WUHU216HW,2013-04-08 22:02:00,
2013-04-08 18:08:00,77.8,52.8,30.00,WSW,248,1.8,4.7,42,0.00,,,0.00,WUHU216HW,2013-04-08 22:08:00,
2013-04-08 18:13:00,77.8,52.8,30.00,SE,135,1.1,4.7,42,0.00,,,0.00,WUHU216HW,2013-04-08 22:13:00,
2013-04-08 18:18:00,77.8,52.8,30.00,SE,135,1.8,3.4,42,0.00,,,0.00,WUHU216HW,2013-04-08 22:18:00,
2013-04-08 18:23:00,77.6,52.7,30.01,WSW,248,2.2,3.4,42,0.00,,,0.00,WUHU216HW,2013-04-08 22:23:00,
2013-04-08 18:28:00,77.4,52.5,30.01,South,180,0.9,3.8,42,0.00,,,0.00,WUHU216HW,2013-04-08 22:28:00,
2013-04-08 18:33:00,77.2,52.3,30.00,SSE,158,1.1,4.7,42,0.00,,,0.00,WUHU216HW,2013-04-08 22:33:00,
2013-04-08 18:38:00,77.0,52.2,30.01,SSE,158,0.4,4.7,42,0.00,,,0.00,WUHU216HW,2013-04-08 22:38:00,
2013-04-08 18:43:00,77.0,52.2,30.01,SW,225,0.9,2.9,42,0.00,,,0.00,WUHU216HW,2013-04-08 22:43:00,
2013-04-08 18:48:00,77.0,52.2,30.01,South,180,1.8,3.4,42,0.00,,,0.00,WUHU216HW,2013-04-08 22:48:00,
2013-04-08 18:53:00,76.9,52.0,30.01,WNW,293,0.7,3.4,42,0.00,,,0.00,WUHU216HW,2013-04-08 22:53:00,
2013-04-08 18:58:00,76.7,52.5,30.01,WSW,248,1.8,3.4,43,0.00,,,0.00,WUHU216HW,2013-04-08 22:58:00,
2013-04-08 19:03:00,76.5,52.3,30.01,SE,135,4.7,4.7,43,0.00,,,0.00,WUHU216HW,2013-04-08 23:03:00,
2013-04-08 19:08:00,76.3,52.1,30.01,ESE,113,3.1,4.7,43,0.00,,,0.00,WUHU216HW,2013-04-08 23:08:00,
2013-04-08 19:13:00,76.1,51.9,30.01,SE,135,1.1,4.7,43,0.00,,,0.00,WUHU216HW,2013-04-08 23:13:00,
2013-04-08 19:18:00,76.0,51.9,30.02,SW,225,2.0,3.6,43,0.00,,,0.00,WUHU216HW,2013-04-08 23:18:00,
2013-04-08 19:23:00,75.8,51.7,30.02,SW,225,0.0,3.4,43,0.00,,,0.00,WUHU216HW,2013-04-08 23:23:00,
2013-04-08 19:28:00,75.6,52.1,30.02,SW,225,1.1,3.4,44,0.00,,,0.00,WUHU216HW,2013-04-08 23:28:00,
2013-04-08 19:33:00,75.2,51.8,30.02,SSW,203,1.1,3.1,44,0.00,,,0.00,WUHU216HW,2013-04-08 23:33:00,
2013-04-08 19:38:00,75.1,51.6,30.02,SW,225,0.4,2.9,44,0.00,,,0.00,WUHU216HW,2013-04-08 23:38:00,
2013-04-08 19:43:00,74.9,51.4,30.02,SW,225,1.3,2.9,44,0.00,,,0.00,WUHU216HW,2013-04-08 23:43:00,
2013-04-08 19:48:00,74.7,51.8,30.02,NW,315,2.5,2.5,45,0.00,,,0.00,WUHU216HW,2013-04-08 23:48:00,
2013-04-08 19:53:00,74.5,51.7,30.02,WSW,248,0.4,3.4,45,0.00,,,0.00,WUHU216HW,2013-04-08 23:53:00,
2013-04-08 19:58:00,74.5,51.7,30.02,SW,225,0.4,3.4,45,0.00,,,0.00,WUHU216HW,2013-04-08 23:58:00,
2013-04-08 20:03:00,74.3,51.6,30.03,SSW,203,1.1,1.3,45,0.00,,,0.00,WUHU216HW,2013-04-09 00:03:00,
2013-04-08 20:08:00,74.2,51.4,30.03,SSE,158,0.2,1.1,45,0.00,,,0.00,WUHU216HW,2013-04-09 00:08:00,
2013-04-08 20:13:00,74.0,51.2,30.03,SSE,158,0.9,1.1,45,0.00,,,0.00,WUHU216HW,2013-04-09 00:13:00,
2013-04-08 20:18:00,73.8,51.6,30.03,SSE,158,0.4,1.1,46,0.00,,,0.00,WUHU216HW,2013-04-09 00:18:00,
2013-04-08 20:23:00,73.6,51.5,30.03,SSE,158,1.1,1.1,46,0.00,,,0.00,WUHU216HW,2013-04-09 00:23:00,
2013-04-08 20:28:00,73.4,51.3,30.03,South,180,0.7,1.1,46,0.00,,,0.00,WUHU216HW,2013-04-09 00:28:00,
2013-04-08 20:33:00,73.3,51.1,30.03,South,180,0.0,1.1,46,0.00,,,0.00,WUHU216HW,2013-04-09 00:33:00,
2013-04-08 20:38:00,73.1,51.6,30.04,South,180,0.4,0.9,47,0.00,,,0.00,WUHU216HW,2013-04-09 00:38:00,
2013-04-08 20:43:00,72.7,51.2,30.04,SSE,158,0.0,0.9,47,0.00,,,0.00,WUHU216HW,2013-04-09 00:43:00,
2013-04-08 20:48:00,72.5,51.0,30.04,SSE,158,0.0,0.7,47,0.00,,,0.00,WUHU216HW,2013-04-09 00:48:00,
2013-04-08 20:53:00,72.4,50.9,30.04,SSE,158,0.4,0.7,47,0.00,,,0.00,WUHU216HW,2013-04-09 00:53:00,
2013-04-08 20:58:00,72.2,51.3,30.04,SSE,158,0.0,0.7,48,0.00,,,0.00,WUHU216HW,2013-04-09 00:58:00,
2013-04-08 21:03:00,72.0,51.1,30.04,SSW,203,0.2,0.9,48,0.00,,,0.00,WUHU216HW,2013-04-09 01:03:00,
2013-04-08 21:09:00,71.6,50.9,30.04,South,180,0.0,0.9,48,0.00,,,0.00,WUHU216HW,2013-04-09 01:09:00,
2013-04-08 21:14:00,71.5,51.3,30.05,SSW,203,0.4,0.4,49,0.00,,,0.00,WUHU216HW,2013-04-09 01:14:00,
2013-04-08 21:19:00,71.3,51.1,30.05,South,180,0.2,0.4,49,0.00,,,0.00,WUHU216HW,2013-04-09 01:19:00,
2013-04-08 21:24:00,70.9,50.8,30.05,SSE,158,0.0,0.4,49,0.00,,,0.00,WUHU216HW,2013-04-09 01:24:00,
2013-04-08 21:29:00,70.7,51.2,30.05,SSE,158,0.0,0.4,50,0.00,,,0.00,WUHU216HW,2013-04-09 01:29:00,
2013-04-08 21:34:00,70.4,50.9,30.05,SSE,158,0.0,0.2,50,0.00,,,0.00,WUHU216HW,2013-04-09 01:34:00,
2013-04-08 21:39:00,70.2,50.8,30.05,SSE,158,0.0,0.0,50,0.00,,,0.00,WUHU216HW,2013-04-09 01:39:00,
2013-04-08 21:44:00,70.0,51.0,30.05,SSE,158,0.0,0.2,51,0.00,,,0.00,WUHU216HW,2013-04-09 01:44:00,
2013-04-08 21:49:00,69.8,51.0,30.05,SSE,158,0.0,0.2,51,0.00,,,0.00,WUHU216HW,2013-04-09 01:49:00,
2013-04-08 21:54:00,69.5,50.6,30.06,NW,315,0.0,0.4,51,0.00,,,0.00,WUHU216HW,2013-04-09 01:54:00,
2013-04-08 21:59:00,69.3,50.4,30.06,SE,135,0.7,0.7,51,0.00,,,0.00,WUHU216HW,2013-04-09 01:59:00,
2013-04-08 22:04:00,69.1,50.2,30.06,ESE,113,0.4,0.7,51,0.00,,,0.00,WUHU216HW,2013-04-09 02:04:00,
2013-04-08 22:10:00,68.9,50.6,30.06,SSE,158,0.0,1.3,52,0.00,,,0.00,WUHU216HW,2013-04-09 02:10:00,
2013-04-08 22:15:00,68.8,50.4,30.06,SSE,158,1.3,3.1,52,0.00,,,0.00,WUHU216HW,2013-04-09 02:15:00,
2013-04-08 22:20:00,68.8,51.0,30.06,South,180,1.8,4.3,53,0.00,,,0.00,WUHU216HW,2013-04-09 02:20:00,
2013-04-08 22:25:00,68.8,51.0,30.06,South,180,0.7,4.3,53,0.00,,,0.00,WUHU216HW,2013-04-09 02:25:00,
2013-04-08 22:30:00,68.8,51.0,30.06,ESE,113,0.4,2.5,53,0.00,,,0.00,WUHU216HW,2013-04-09 02:30:00,
2013-04-08 22:35:00,68.8,51.0,30.06,SE,135,0.4,2.2,53,0.00,,,0.00,WUHU216HW,2013-04-09 02:35:00,
2013-04-08 22:40:00,68.8,51.4,30.07,SSE,158,0.7,2.9,54,0.00,,,0.00,WUHU216HW,2013-04-09 02:40:00,
2013-04-08 22:45:00,68.6,51.2,30.06,SSE,158,1.3,2.9,54,0.00,,,0.00,WUHU216HW,2013-04-09 02:45:00,
2013-04-08 22:50:00,68.6,51.2,30.06,SSE,158,1.1,5.1,54,0.00,,,0.00,WUHU216HW,2013-04-09 02:50:00,
2013-04-08 22:55:00,68.4,51.6,30.07,ESE,113,0.9,5.1,55,0.00,,,0.00,WUHU216HW,2013-04-09 02:55:00,
2013-04-08 23:00:00,68.4,52.0,30.07,SE,135,0.4,4.7,56,0.00,,,0.00,WUHU216HW,2013-04-09 03:00:00,
2013-04-08 23:05:00,68.2,51.8,30.07,SE,135,1.1,4.7,56,0.00,,,0.00,WUHU216HW,2013-04-09 03:05:00,
2013-04-08 23:10:00,68.0,51.7,30.07,SSE,158,2.0,2.5,56,0.00,,,0.00,WUHU216HW,2013-04-09 03:10:00,
2013-04-08 23:15:00,68.0,51.7,30.07,SSE,158,1.1,2.5,56,0.00,,,0.00,WUHU216HW,2013-04-09 03:15:00,
2013-04-08 23:20:00,68.0,51.7,30.07,South,180,0.9,2.9,56,0.00,,,0.00,WUHU216HW,2013-04-09 03:20:00,
2013-04-08 23:25:00,67.9,51.6,30.07,SSE,158,1.8,2.9,56,0.00,,,0.00,WUHU216HW,2013-04-09 03:25:00,
2013-04-08 23:30:00,67.9,52.0,30.06,SSE,158,1.6,3.4,57,0.00,,,0.00,WUHU216HW,2013-04-09 03:30:00,
2013-04-08 23:35:00,67.7,52.4,30.07,South,180,1.1,3.4,58,0.00,,,0.00,WUHU216HW,2013-04-09 03:35:00,
2013-04-08 23:40:00,67.5,52.2,30.07,SE,135,1.8,2.5,58,0.00,,,0.00,WUHU216HW,2013-04-09 03:40:00,
2013-04-08 23:45:00,67.3,52.0,30.07,SSE,158,1.1,1.8,58,0.00,,,0.00,WUHU216HW,2013-04-09 03:45:00,
2013-04-08 23:50:00,67.3,52.5,30.07,ESE,113,0.2,1.8,59,0.00,,,0.00,WUHU216HW,2013-04-09 03:50:00,
2013-04-08 23:55:00,67.1,52.4,30.06,SSE,158,0.4,1.8,59,0.00,,,0.00,WUHU216HW,2013-04-09 03:55:00,